| time (UTC) | temp F | wind direction | speed knots | gust knots | rain 1hr in | rain 24hr in | rain mn in | humidity % | barometer mb |
| 20260509034828 | 63 | 332 | 0.0 | 3.5 | 0.00 | 0.00 | 0.00 | 41 | -103.1 |
| 20260509034329 | 63 | 333 | 0.9 | 3.5 | 0.00 | 0.00 | 0.00 | 41 | -103.1 |
| 20260509033828 | 63 | 77 | 0.0 | 0.9 | 0.00 | 0.00 | 0.00 | 40 | -103.1 |
| 20260509033328 | 63 | 77 | 0.0 | 0.9 | 0.00 | 0.00 | 0.00 | 40 | -103.1 |
| 20260509032827 | 63 | 77 | 0.0 | 0.9 | 0.00 | 0.00 | 0.00 | 38 | -103.1 |
| 20260509013829 | 69 | 160 | 0.0 | 1.7 | 0.00 | 0.00 | 0.00 | 30 | -103.3 |
| 20260509013331 | 69 | 155 | 0.0 | 2.6 | 0.00 | 0.00 | 0.00 | 29 | -103.3 |
| 20260509012833 | 69 | 162 | 0.9 | 3.5 | 0.00 | 0.00 | 0.00 | 29 | -103.3 |
| 20260509012334 | 70 | 160 | 0.9 | 3.5 | 0.00 | 0.00 | 0.00 | 29 | -103.3 |
| 20260509011832 | 70 | 165 | 1.7 | 3.5 | 0.00 | 0.00 | 0.00 | 29 | -103.3 |
| 20260509011350 | 70 | 155 | 0.0 | 1.7 | 0.00 | 0.00 | 0.00 | 29 | -103.3 |
| 20260509010828 | 70 | 98 | 0.0 | 2.6 | 0.00 | 0.00 | 0.00 | 30 | -103.3 |
| 20260509010329 | 71 | 145 | 0.9 | 4.3 | 0.00 | 0.00 | 0.00 | 29 | -103.3 |
| 20260509005824 | 71 | 247 | 0.9 | 4.3 | 0.00 | 0.00 | 0.00 | 29 | -103.3 |
| 20260509005326 | 72 | 190 | 0.9 | 3.5 | 0.00 | 0.00 | 0.00 | 28 | -103.3 |
| 20260509004825 | 72 | 165 | 1.7 | 5.2 | 0.00 | 0.00 | 0.00 | 27 | -103.3 |
| 20260509004328 | 73 | 132 | 1.7 | 5.2 | 0.00 | 0.00 | 0.00 | 26 | -103.3 |
| 20260509003830 | 73 | 164 | 0.9 | 3.5 | 0.00 | 0.00 | 0.00 | 27 | -103.3 |
| 20260509003353 | 73 | 169 | 0.9 | 2.6 | 0.00 | 0.00 | 0.00 | 26 | -103.3 |
| 20260509002831 | 73 | 150 | 0.9 | 1.7 | 0.00 | 0.00 | 0.00 | 24 | -103.3 |
| 20260509002329 | 73 | 138 | 0.0 | 1.7 | 0.00 | 0.00 | 0.00 | 25 | -103.3 |
| 20260509001318 | 74 | 187 | 0.9 | 2.6 | 0.00 | 0.00 | 0.00 | 23 | -103.2 |
| 20260509000817 | 74 | 134 | 0.0 | 1.7 | 0.00 | 0.00 | 0.00 | 24 | -103.2 |
| 20260509000318 | 74 | 160 | 0.0 | 4.3 | 0.00 | 0.00 | 0.00 | 25 | -103.2 |
| 20260508235832 | 74 | 156 | 1.7 | 5.2 | 0.00 | 0.00 | 0.00 | 22 | -103.2 |
| 20260508235353 | 75 | 170 | 1.7 | 5.2 | 0.00 | 0.00 | 0.00 | 23 | -103.2 |
| 20260508234832 | 75 | 137 | 0.9 | 2.6 | 0.00 | 0.00 | 0.00 | 23 | -103.2 |
| 20260508234334 | 75 | 352 | 0.9 | 2.6 | 0.00 | 0.00 | 0.00 | 24 | -103.2 |
| 20260508233815 | 75 | 28 | 0.0 | 4.3 | 0.00 | 0.00 | 0.00 | 24 | -103.2 |
| 20260508233317 | 74 | 179 | 0.0 | 5.2 | 0.00 | 0.00 | 0.00 | 24 | -103.2 |
| 20260508232838 | 74 | 155 | 1.7 | 5.2 | 0.00 | 0.00 | 0.00 | 24 | -103.2 |
| 20260508232318 | 74 | 134 | 0.0 | 4.3 | 0.00 | 0.00 | 0.00 | 24 | -103.2 |
| 20260508231817 | 74 | 210 | 0.9 | 3.5 | 0.00 | 0.00 | 0.00 | 23 | -103.2 |
| 20260508231338 | 74 | 168 | 0.9 | 4.3 | 0.00 | 0.00 | 0.00 | 24 | -103.2 |
| 20260508230816 | 74 | 140 | 0.9 | 4.3 | 0.00 | 0.00 | 0.00 | 24 | -103.2 |
| 20260508230320 | 74 | 152 | 1.7 | 4.3 | 0.00 | 0.00 | 0.00 | 24 | -103.2 |
| 20260508225817 | 74 | 165 | 0.9 | 5.2 | 0.00 | 0.00 | 0.00 | 24 | -103.2 |
| 20260508225339 | 74 | 328 | 2.6 | 5.2 | 0.00 | 0.00 | 0.00 | 23 | -103.2 |
| 20260508224837 | 74 | 155 | 0.9 | 3.5 | 0.00 | 0.00 | 0.00 | 23 | -103.2 |
| 20260508224319 | 75 | 161 | 1.7 | 3.5 | 0.00 | 0.00 | 0.00 | 24 | -103.2 |
| 20260508223817 | 75 | 151 | 0.9 | 4.3 | 0.00 | 0.00 | 0.00 | 24 | -103.2 |
| 20260508223318 | 75 | 175 | 0.9 | 6.1 | 0.00 | 0.00 | 0.00 | 24 | -103.1 |
| 20260508222816 | 75 | 155 | 2.6 | 6.1 | 0.00 | 0.00 | 0.00 | 23 | -103.2 |
| 20260508222319 | 76 | 201 | 2.6 | 4.3 | 0.00 | 0.00 | 0.00 | 24 | -103.1 |
| 20260508221820 | 75 | 162 | 1.7 | 3.5 | 0.00 | 0.00 | 0.00 | 24 | -103.1 |
| 20260508221323 | 76 | 181 | 0.9 | 4.3 | 0.00 | 0.00 | 0.00 | 26 | -103.1 |
| 20260508220843 | 76 | 166 | 1.7 | 4.3 | 0.00 | 0.00 | 0.00 | 23 | -103.1 |
| 20260508220324 | 76 | 75 | 0.9 | 3.5 | 0.00 | 0.00 | 0.00 | 24 | -103.1 |
| 20260508215821 | 76 | 178 | 1.7 | 4.3 | 0.00 | 0.00 | 0.00 | 25 | -103.1 |
| 20260508215322 | 76 | 160 | 1.7 | 4.3 | 0.00 | 0.00 | 0.00 | 26 | -103.1 |
| 20260508214820 | 76 | 118 | 0.9 | 2.6 | 0.00 | 0.00 | 0.00 | 25 | -103.1 |
| 20260508214343 | 75 | 167 | 0.9 | 3.5 | 0.00 | 0.00 | 0.00 | 25 | -103.1 |
| 20260508213821 | 74 | 73 | 1.7 | 4.3 | 0.00 | 0.00 | 0.00 | 27 | -103.1 |
| 20260508213323 | 74 | 167 | 0.9 | 3.5 | 0.00 | 0.00 | 0.00 | 27 | -103.1 |
| 20260508212823 | 75 | 159 | 1.7 | 5.2 | 0.00 | 0.00 | 0.00 | 25 | -103.1 |
| 20260508212325 | 75 | 143 | 1.7 | 5.2 | 0.00 | 0.00 | 0.00 | 25 | -103.0 |
| 20260508211845 | 75 | 143 | 0.9 | 3.5 | 0.00 | 0.00 | 0.00 | 27 | -103.0 |
| 20260508211325 | 75 | 164 | 1.7 | 4.3 | 0.00 | 0.00 | 0.00 | 26 | -103.0 |
| 20260508210825 | 74 | 283 | 2.6 | 5.2 | 0.00 | 0.00 | 0.00 | 28 | -103.0 |
| 20260508210346 | 75 | 82 | 2.6 | 5.2 | 0.00 | 0.00 | 0.00 | 24 | -103.0 |
| 20260508205822 | 75 | 170 | 1.7 | 3.5 | 0.00 | 0.00 | 0.00 | 26 | -103.0 |
| 20260508205324 | 74 | 146 | 0.0 | 3.5 | 0.00 | 0.00 | 0.00 | 32 | -103.0 |
| 20260508204825 | 74 | 336 | 0.9 | 3.5 | 0.00 | 0.00 | 0.00 | 28 | -103.0 |
| 20260508204326 | 75 | 30 | 0.9 | 3.5 | 0.00 | 0.00 | 0.00 | 26 | -103.0 |
| 20260508203826 | 75 | 147 | 1.7 | 3.5 | 0.00 | 0.00 | 0.00 | 26 | -103.0 |
| 20260508203347 | 75 | 159 | 1.7 | 3.5 | 0.00 | 0.00 | 0.00 | 26 | -103.0 |
| 20260508202824 | 74 | 157 | 1.7 | 3.5 | 0.00 | 0.00 | 0.00 | 26 | -103.0 |
| 20260508202323 | 74 | 162 | 0.9 | 4.3 | 0.00 | 0.00 | 0.00 | 27 | -103.0 |
| 20260508201822 | 74 | 163 | 1.7 | 4.3 | 0.00 | 0.00 | 0.00 | 28 | -103.0 |
| 20260508201344 | 74 | 300 | 1.7 | 4.3 | 0.00 | 0.00 | 0.00 | 28 | -103.0 |
| 20260508200824 | 75 | 304 | 0.9 | 4.3 | 0.00 | 0.00 | 0.00 | 28 | -103.0 |
| 20260508200326 | 75 | 307 | 0.9 | 5.2 | 0.00 | 0.00 | 0.00 | 27 | -103.0 |
| 20260508195824 | 74 | 130 | 0.0 | 5.2 | 0.00 | 0.00 | 0.00 | 29 | -103.0 |
| 20260508175816 | 69 | 174 | 0.9 | 2.6 | 0.00 | 0.00 | 0.00 | 32 | -102.9 |
| 20260508175332 | 69 | 127 | 0.9 | 2.6 | 0.00 | 0.00 | 0.00 | 32 | -102.9 |
| 20260508174852 | 68 | 148 | 1.7 | 2.6 | 0.00 | 0.00 | 0.00 | 33 | -102.9 |
| 20260508174312 | 68 | 313 | 0.9 | 3.5 | 0.00 | 0.00 | 0.00 | 35 | -102.9 |
| 20260508173812 | 68 | 326 | 1.7 | 3.5 | 0.00 | 0.00 | 0.00 | 34 | -102.9 |
| 20260508173312 | 67 | 321 | 1.7 | 3.5 | 0.00 | 0.00 | 0.00 | 35 | -102.9 |
| 20260508172829 | 67 | 333 | 0.9 | 3.5 | 0.00 | 0.00 | 0.00 | 35 | -102.9 |
| 20260508172330 | 67 | 340 | 0.9 | 2.6 | 0.00 | 0.00 | 0.00 | 33 | -102.9 |
| 20260508171830 | 67 | 144 | 1.7 | 2.6 | 0.00 | 0.00 | 0.00 | 30 | -102.9 |
| 20260508171331 | 67 | 165 | 0.9 | 2.6 | 0.00 | 0.00 | 0.00 | 33 | -102.9 |
| 20260508170829 | 67 | 125 | 0.9 | 1.7 | 0.00 | 0.00 | 0.00 | 34 | -102.9 |
| 20260508170329 | 67 | 311 | 0.0 | 2.6 | 0.00 | 0.00 | 0.00 | 38 | -102.9 |
| 20260508165825 | 66 | 354 | 0.9 | 2.6 | 0.00 | 0.00 | 0.00 | 39 | -102.9 |
| 20260508165327 | 66 | 149 | 0.9 | 3.5 | 0.00 | 0.00 | 0.00 | 34 | -102.9 |
| 20260508164828 | 66 | 153 | 1.7 | 3.5 | 0.00 | 0.00 | 0.00 | 35 | -102.9 |
| 20260508164331 | 65 | 317 | 0.0 | 1.7 | 0.00 | 0.00 | 0.00 | 34 | -102.9 |
| 20260508163830 | 66 | 311 | 0.9 | 1.7 | 0.00 | 0.00 | 0.00 | 31 | -102.9 |
| 20260508163329 | 65 | 120 | 0.0 | 0.9 | 0.00 | 0.00 | 0.00 | 37 | -102.9 |
| 20260508162843 | 65 | 322 | 0.0 | 1.7 | 0.00 | 0.00 | 0.00 | 36 | -102.9 |
| 20260508162344 | 65 | 319 | 0.0 | 1.7 | 0.00 | 0.00 | 0.00 | 34 | -102.9 |
| 20260508161824 | 64 | 341 | 0.0 | 1.7 | 0.00 | 0.00 | 0.00 | 36 | -102.9 |
| 20260508161324 | 63 | 355 | 0.0 | 1.7 | 0.00 | 0.00 | 0.00 | 39 | -102.9 |
| 20260508160825 | 64 | 357 | 0.9 | 1.7 | 0.00 | 0.00 | 0.00 | 36 | -102.9 |
| 20260508160325 | 63 | 156 | 0.0 | 1.7 | 0.00 | 0.00 | 0.00 | 36 | -102.9 |
| 20260508155841 | 64 | 315 | 0.9 | 1.7 | 0.00 | 0.00 | 0.00 | 36 | -102.9 |
| 20260508155322 | 63 | 328 | 0.0 | 1.7 | 0.00 | 0.00 | 0.00 | 37 | -102.9 |
| 20260508154822 | 63 | 152 | 0.0 | 1.7 | 0.00 | 0.00 | 0.00 | 39 | -102.9 |
| 20260508154324 | 63 | 146 | 0.9 | 1.7 | 0.00 | 0.00 | 0.00 | 43 | -102.9 |
| 20260508153823 | 64 | 300 | 0.9 | 1.7 | 0.00 | 0.00 | 0.00 | 41 | -102.9 |
| 20260508153323 | 63 | 346 | 0.0 | 0.9 | 0.00 | 0.00 | 0.00 | 42 | -102.9 |
| 20260508152826 | 63 | 344 | 0.0 | 0.9 | 0.00 | 0.00 | 0.00 | 40 | -102.9 |
| 20260508152327 | 63 | 345 | 0.9 | 0.9 | 0.00 | 0.00 | 0.00 | 40 | -102.9 |
| 20260508151824 | 63 | 343 | 0.0 | 1.7 | 0.00 | 0.00 | 0.00 | 41 | -102.9 |
| 20260508151324 | 63 | 63 | 0.0 | 0.9 | 0.00 | 0.00 | 0.00 | 41 | -102.9 |
| 20260508150844 | 63 | 344 | 0.0 | 0.9 | 0.00 | 0.00 | 0.00 | 41 | -102.9 |
| 20260508150325 | 62 | 141 | 0.0 | 0.9 | 0.00 | 0.00 | 0.00 | 36 | -102.9 |
| 20260508145821 | 62 | 141 | 0.0 | 0.9 | 0.00 | 0.00 | 0.00 | 39 | -102.9 |
| 20260508145319 | 61 | 140 | 0.0 | 0.9 | 0.00 | 0.00 | 0.00 | 40 | -102.9 |
| 20260508144819 | 61 | 77 | 0.0 | 0.9 | 0.00 | 0.00 | 0.00 | 39 | -102.9 |
| 20260508144323 | 61 | 77 | 0.0 | 0.9 | 0.00 | 0.00 | 0.00 | 40 | -102.9 |
| 20260508143844 | 61 | 77 | 0.0 | 0.9 | 0.00 | 0.00 | 0.00 | 38 | -102.9 |
| 20260508143325 | 61 | 136 | 0.0 | 0.9 | 0.00 | 0.00 | 0.00 | 39 | -102.9 |
| 20260508142824 | 61 | 136 | 0.0 | 0.9 | 0.00 | 0.00 | 0.00 | 40 | -102.9 |
| 20260508142327 | 60 | 135 | 0.0 | 1.7 | 0.00 | 0.00 | 0.00 | 41 | -102.9 |
| 20260508141826 | 60 | 136 | 0.9 | 1.7 | 0.00 | 0.00 | 0.00 | 42 | -103.0 |
| 20260508141326 | 59 | 124 | 0.0 | 0.9 | 0.00 | 0.00 | 0.00 | 44 | -103.0 |
| 20260508140826 | 59 | 139 | 0.9 | 0.9 | 0.00 | 0.00 | 0.00 | 44 | -103.0 |
| 20260508140326 | 59 | 112 | 0.0 | 0.9 | 0.00 | 0.00 | 0.00 | 45 | -103.0 |
| 20260508135822 | 58 | 142 | 0.0 | 2.6 | 0.00 | 0.00 | 0.00 | 45 | -103.0 |
| 20260508135324 | 58 | 157 | 0.9 | 2.6 | 0.00 | 0.00 | 0.00 | 45 | -103.0 |
| 20260508134822 | 58 | 122 | 0.9 | 0.9 | 0.00 | 0.00 | 0.00 | 45 | -103.0 |
| 20260508134325 | 57 | 144 | 0.0 | 0.9 | 0.00 | 0.00 | 0.00 | 49 | -103.0 |
| 20260508133826 | 55 | 145 | 0.0 | 1.7 | 0.00 | 0.00 | 0.00 | 51 | -103.0 |
| 20260508133348 | 54 | 144 | 1.7 | 1.7 | 0.00 | 0.00 | 0.00 | 51 | -103.0 |
| 20260508132828 | 53 | 137 | 0.9 | 2.6 | 0.00 | 0.00 | 0.00 | 54 | -103.0 |
| 20260508132329 | 54 | 288 | 0.9 | 2.6 | 0.00 | 0.00 | 0.00 | 51 | -103.0 |
| 20260508131829 | 54 | 148 | 0.9 | 1.7 | 0.00 | 0.00 | 0.00 | 47 | -103.0 |
| 20260508131331 | 54 | 145 | 0.0 | 1.7 | 0.00 | 0.00 | 0.00 | 49 | -103.0 |
| 20260508130811 | 53 | 145 | 0.9 | 1.7 | 0.00 | 0.00 | 0.00 | 48 | -103.0 |
| 20260508130331 | 52 | 135 | 0.9 | 1.7 | 0.00 | 0.00 | 0.00 | 50 | -103.0 |
| 20260508125825 | 51 | 136 | 0.0 | 1.7 | 0.00 | 0.00 | 0.00 | 51 | -103.1 |
| 20260508125324 | 51 | 127 | 0.9 | 1.7 | 0.00 | 0.00 | 0.00 | 51 | -103.1 |
| 20260508124823 | 51 | 139 | 0.9 | 1.7 | 0.00 | 0.00 | 0.00 | 52 | -103.1 |
| 20260508124323 | 51 | 141 | 0.9 | 1.7 | 0.00 | 0.00 | 0.00 | 53 | -103.1 |
| 20260508123823 | 50 | 112 | 0.9 | 1.7 | 0.00 | 0.00 | 0.00 | 54 | -103.1 |
| 20260508123343 | 50 | 139 | 0.9 | 0.9 | 0.00 | 0.00 | 0.00 | 58 | -103.1 |
| 20260508122820 | 50 | 139 | 0.0 | 1.7 | 0.00 | 0.00 | 0.00 | 60 | -103.1 |
| 20260508122319 | 50 | 139 | 0.9 | 1.7 | 0.00 | 0.00 | 0.00 | 62 | -103.1 |
| 20260508121818 | 49 | 140 | 0.0 | 0.0 | 0.00 | 0.00 | 0.00 | 68 | -103.1 |
| 20260508121320 | 50 | 140 | 0.0 | 0.0 | 0.00 | 0.00 | 0.00 | 75 | -103.1 |
| 20260508120821 | 50 | 140 | 0.0 | 0.0 | 0.00 | 0.00 | 0.00 | 74 | -103.1 |
| 20260508120324 | 50 | 140 | 0.0 | 0.0 | 0.00 | 0.00 | 0.00 | 73 | -103.1 |
| 20260508115842 | 50 | 140 | 0.0 | 0.0 | 0.00 | 0.00 | 0.00 | 72 | -103.1 |
| 20260508115323 | 51 | 140 | 0.0 | 0.0 | 0.00 | 0.00 | 0.00 | 70 | -103.1 |
| 20260508114820 | 51 | 140 | 0.0 | 0.0 | 0.00 | 0.00 | 0.00 | 67 | -103.1 |
| 20260508114342 | 51 | 140 | 0.0 | 0.0 | 0.00 | 0.00 | 0.00 | 57 | -103.1 |
| 20260508113822 | 51 | 140 | 0.0 | 0.0 | 0.00 | 0.00 | 0.00 | 56 | -103.1 |
| 20260508113325 | 51 | 140 | 0.0 | 0.0 | 0.00 | 0.00 | 0.00 | 56 | -103.1 |
| 20260508112825 | 51 | 140 | 0.0 | 0.0 | 0.00 | 0.00 | 0.00 | 53 | -103.1 |
| 20260508112327 | 52 | 141 | 0.0 | 0.0 | 0.00 | 0.00 | 0.00 | 52 | -103.1 |
| 20260508111827 | 52 | 141 | 0.0 | 0.0 | 0.00 | 0.00 | 0.00 | 48 | -103.1 |
| 20260508111331 | 52 | 130 | 0.0 | 0.9 | 0.00 | 0.00 | 0.00 | 48 | -103.1 |
| 20260508110812 | 53 | 129 | 0.0 | 0.9 | 0.00 | 0.00 | 0.00 | 47 | -103.1 |
| 20260508110314 | 53 | 130 | 0.0 | 1.7 | 0.00 | 0.00 | 0.00 | 46 | -103.1 |
| 20260508105830 | 54 | 150 | 0.9 | 1.7 | 0.00 | 0.00 | 0.00 | 45 | -103.1 |
| 20260508105330 | 54 | 137 | 0.9 | 1.7 | 0.00 | 0.00 | 0.00 | 44 | -103.1 |
| 20260508104844 | 54 | 124 | 0.0 | 1.7 | 0.00 | 0.00 | 0.00 | 45 | -103.2 |
| 20260508104324 | 54 | 126 | 0.9 | 1.7 | 0.00 | 0.00 | 0.00 | 44 | -103.2 |
| 20260508103823 | 54 | 118 | 0.9 | 1.7 | 0.00 | 0.00 | 0.00 | 44 | -103.2 |
| 20260508103344 | 54 | 143 | 0.9 | 1.7 | 0.00 | 0.00 | 0.00 | 44 | -103.2 |
| 20260508102822 | 54 | 146 | 1.7 | 1.7 | 0.00 | 0.00 | 0.00 | 45 | -103.2 |
| 20260508102410 | 54 | 141 | 1.7 | 1.7 | 0.00 | 0.00 | 0.00 | 45 | -103.2 |
| 20260508101819 | 54 | 136 | 0.9 | 1.7 | 0.00 | 0.00 | 0.00 | 46 | -103.2 |
| 20260508101321 | 53 | 142 | 0.9 | 2.6 | 0.00 | 0.00 | 0.00 | 47 | -103.2 |
| 20260508100839 | 53 | 136 | 0.9 | 1.7 | 0.00 | 0.00 | 0.00 | 47 | -103.2 |
| 20260508100320 | 53 | 130 | 1.7 | 1.7 | 0.00 | 0.00 | 0.00 | 48 | -103.2 |
| 20260508095819 | 53 | 98 | 0.9 | 1.7 | 0.00 | 0.00 | 0.00 | 46 | -103.2 |
| 20260508095323 | 53 | 82 | 0.9 | 1.7 | 0.00 | 0.00 | 0.00 | 44 | -103.2 |
| 20260508094824 | 54 | 139 | 0.0 | 0.9 | 0.00 | 0.00 | 0.00 | 42 | -103.2 |
| 20260508094344 | 54 | 139 | 0.0 | 1.7 | 0.00 | 0.00 | 0.00 | 41 | -103.2 |
| 20260508093823 | 54 | 150 | 0.9 | 0.9 | 0.00 | 0.00 | 0.00 | 42 | -103.2 |
| 20260508093324 | 54 | 150 | 0.9 | 0.9 | 0.00 | 0.00 | 0.00 | 42 | -103.2 |
| 20260508092845 | 54 | 150 | 0.0 | 0.9 | 0.00 | 0.00 | 0.00 | 42 | -103.2 |
| 20260508092327 | 54 | 150 | 0.9 | 0.9 | 0.00 | 0.00 | 0.00 | 42 | -103.2 |
| 20260508091826 | 54 | 153 | 0.9 | 1.7 | 0.00 | 0.00 | 0.00 | 41 | -103.1 |
| 20260508091327 | 55 | 152 | 0.9 | 0.9 | 0.00 | 0.00 | 0.00 | 40 | -103.1 |
| 20260508090826 | 55 | 158 | 0.0 | 0.9 | 0.00 | 0.00 | 0.00 | 41 | -103.1 |
| 20260508090328 | 55 | 158 | 0.9 | 0.9 | 0.00 | 0.00 | 0.00 | 41 | -103.1 |
| 20260508085825 | 56 | 159 | 0.0 | 1.7 | 0.00 | 0.00 | 0.00 | 39 | -103.2 |
| 20260508085345 | 56 | 159 | 0.9 | 1.7 | 0.00 | 0.00 | 0.00 | 40 | -103.2 |
| 20260508084825 | 56 | 146 | 0.0 | 2.6 | 0.00 | 0.00 | 0.00 | 40 | -103.1 |
| 20260508084347 | 56 | 141 | 1.7 | 2.6 | 0.00 | 0.00 | 0.00 | 41 | -103.2 |
| 20260508083845 | 56 | 144 | 1.7 | 2.6 | 0.00 | 0.00 | 0.00 | 41 | -103.1 |
| 20260508083328 | 56 | 146 | 0.9 | 3.5 | 0.00 | 0.00 | 0.00 | 41 | -103.2 |
| 20260508082829 | 56 | 144 | 1.7 | 3.5 | 0.00 | 0.00 | 0.00 | 40 | -103.1 |
| 20260508082312 | 56 | 141 | 1.7 | 2.6 | 0.00 | 0.00 | 0.00 | 40 | -103.1 |
| 20260508081831 | 56 | 135 | 1.7 | 3.5 | 0.00 | 0.00 | 0.00 | 40 | -103.1 |
| 20260508081312 | 56 | 121 | 0.9 | 3.5 | 0.00 | 0.00 | 0.00 | 40 | -103.1 |
| 20260508080812 | 56 | 153 | 2.6 | 3.5 | 0.00 | 0.00 | 0.00 | 41 | -103.1 |
| 20260508080314 | 56 | 142 | 0.0 | 3.5 | 0.00 | 0.00 | 0.00 | 42 | -103.1 |
| 20260508075830 | 56 | 142 | 2.6 | 3.5 | 0.00 | 0.00 | 0.00 | 42 | -103.1 |
| 20260508075312 | 56 | 141 | 1.7 | 2.6 | 0.00 | 0.00 | 0.00 | 42 | -103.1 |
| 20260508074813 | 56 | 139 | 0.9 | 2.6 | 0.00 | 0.00 | 0.00 | 43 | -103.1 |
| 20260508074315 | 56 | 137 | 1.7 | 2.6 | 0.00 | 0.00 | 0.00 | 43 | -103.1 |
| 20260508073815 | 56 | 138 | 1.7 | 2.6 | 0.00 | 0.00 | 0.00 | 43 | -103.1 |
| 20260508073317 | 56 | 146 | 1.7 | 2.6 | 0.00 | 0.00 | 0.00 | 41 | -103.1 |
| 20260508072815 | 56 | 133 | 0.9 | 1.7 | 0.00 | 0.00 | 0.00 | 42 | -103.1 |
| 20260508072337 | 56 | 132 | 0.9 | 2.6 | 0.00 | 0.00 | 0.00 | 42 | -103.1 |
| 20260508071815 | 57 | 136 | 1.7 | 2.6 | 0.00 | 0.00 | 0.00 | 43 | -103.2 |
| 20260508071316 | 57 | 134 | 1.7 | 2.6 | 0.00 | 0.00 | 0.00 | 43 | -103.2 |
| 20260508070815 | 57 | 139 | 1.7 | 2.6 | 0.00 | 0.00 | 0.00 | 42 | -103.2 |
| 20260508070318 | 57 | 146 | 1.7 | 2.6 | 0.00 | 0.00 | 0.00 | 42 | -103.2 |
| 20260508065836 | 57 | 136 | 0.9 | 2.6 | 0.00 | 0.00 | 0.00 | 43 | -103.1 |
| 20260508065323 | 57 | 137 | 0.9 | 2.6 | 0.00 | 0.00 | 0.00 | 44 | -103.2 |
| 20260508064823 | 57 | 131 | 0.9 | 1.7 | 0.00 | 0.00 | 0.00 | 43 | -103.2 |
| 20260508064326 | 57 | 123 | 0.9 | 1.7 | 0.00 | 0.00 | 0.00 | 43 | -103.2 |
| 20260508063826 | 57 | 133 | 0.9 | 1.7 | 0.00 | 0.00 | 0.00 | 42 | -103.2 |
| 20260508063329 | 57 | 145 | 0.0 | 1.7 | 0.00 | 0.00 | 0.00 | 42 | -103.2 |
| 20260508062830 | 58 | 136 | 0.9 | 2.6 | 0.00 | 0.00 | 0.00 | 41 | -103.2 |
| 20260508062314 | 58 | 147 | 1.7 | 2.6 | 0.00 | 0.00 | 0.00 | 42 | -103.2 |
| 20260508061814 | 58 | 144 | 1.7 | 2.6 | 0.00 | 0.00 | 0.00 | 42 | -103.2 |
| 20260508061316 | 58 | 139 | 0.9 | 2.6 | 0.00 | 0.00 | 0.00 | 42 | -103.2 |
| 20260508060815 | 58 | 134 | 1.7 | 2.6 | 0.00 | 0.00 | 0.00 | 42 | -103.2 |
| 20260508060317 | 58 | 134 | 1.7 | 2.6 | 0.00 | 0.00 | 0.00 | 42 | -103.2 |
| 20260508055827 | 58 | 131 | 1.7 | 2.6 | 0.00 | 0.00 | 0.00 | 43 | -103.2 |
| 20260508055330 | 58 | 136 | 0.9 | 1.7 | 0.00 | 0.00 | 0.00 | 43 | -103.2 |
| 20260508054828 | 58 | 139 | 0.9 | 1.7 | 0.00 | 0.00 | 0.00 | 42 | -103.2 |
| 20260508054330 | 59 | 148 | 0.9 | 1.7 | 0.00 | 0.00 | 0.00 | 42 | -103.2 |
| 20260508053829 | 59 | 146 | 0.9 | 1.7 | 0.00 | 0.00 | 0.00 | 42 | -103.2 |
| 20260508053331 | 59 | 123 | 0.9 | 1.7 | 0.00 | 0.00 | 0.00 | 41 | -103.2 |
| 20260508052832 | 59 | 136 | 0.9 | 1.7 | 0.00 | 0.00 | 0.00 | 41 | -103.2 |
| 20260508052313 | 59 | 139 | 0.0 | 0.9 | 0.00 | 0.00 | 0.00 | 41 | -103.2 |
| 20260508051826 | 60 | 139 | 0.0 | 2.6 | 0.00 | 0.00 | 0.00 | 41 | -103.2 |
| 20260508051327 | 60 | 139 | 0.9 | 3.5 | 0.00 | 0.00 | 0.00 | 41 | -103.2 |
| 20260508050826 | 60 | 129 | 1.7 | 3.5 | 0.00 | 0.00 | 0.00 | 41 | -103.2 |
| 20260508050347 | 60 | 143 | 1.7 | 3.5 | 0.00 | 0.00 | 0.00 | 41 | -103.2 |
| 20260508045821 | 60 | 139 | 1.7 | 2.6 | 0.00 | 0.00 | 0.00 | 40 | -103.2 |
| 20260508045322 | 60 | 141 | 1.7 | 2.6 | 0.00 | 0.00 | 0.00 | 40 | -103.2 |
| 20260508044822 | 60 | 141 | 0.9 | 1.7 | 0.00 | 0.00 | 0.00 | 41 | -103.2 |
| 20260508044341 | 60 | 138 | 0.9 | 1.7 | 0.00 | 0.00 | 0.00 | 40 | -103.2 |
| 20260508043819 | 60 | 143 | 0.9 | 1.7 | 0.00 | 0.00 | 0.00 | 40 | -103.2 |
| 20260508043323 | 61 | 138 | 0.9 | 2.6 | 0.00 | 0.00 | 0.00 | 40 | -103.2 |
| 20260508042826 | 61 | 137 | 1.7 | 2.6 | 0.00 | 0.00 | 0.00 | 40 | -103.2 |
| 20260508042331 | 60 | 141 | 0.0 | 1.7 | 0.00 | 0.00 | 0.00 | 40 | -103.2 |
| 20260508041814 | 61 | 131 | 0.9 | 2.6 | 0.00 | 0.00 | 0.00 | 40 | -103.2 |
| 20260508041320 | 61 | 141 | 1.7 | 2.6 | 0.00 | 0.00 | 0.00 | 40 | -103.2 |
| 20260508040824 | 61 | 142 | 1.7 | 2.6 | 0.00 | 0.00 | 0.00 | 41 | -103.2 |
| 20260508040330 | 61 | 145 | 0.9 | 1.7 | 0.00 | 0.00 | 0.00 | 41 | -103.2 |
| 20260508035829 | 61 | 138 | 0.0 | 0.9 | 0.00 | 0.00 | 0.00 | 40 | -103.2 |
| 20260508035311 | 61 | 130 | 0.9 | 1.7 | 0.00 | 0.00 | 0.00 | 40 | -103.2 |